Temperature
21 21 21 21 20 20 20 20 19 19 19 19 19 18 18 18 18 18 18 18 18 18 18 18 18 18 18 18 18 18 18 17 18 18 18 18 18 18 18 17 17 17 17
21 21 21 21 20 20 20 20 20 19 19 19 19 19 19 18 18 18 18 18 18 18 18 18 18 18 18 18 18 18 18 17 17 17 17 17 17 18 17 17 17 18 17
21 21 21 21 21 20 20 20 20 20 19 19 19 19 18 18 18 18 18 18 18 18 18 18 18 18 18 18 18 18 18 17 17 17 17 17 17 17 17 17 17 17 17
21 21 21 21 21 21 21 20 20 20 20 19 19 19 19 19 19 19 19 18 18 18 18 18 18 18 18 18 18 18 18 17 17 17 17 17 17 17 17 17 17 17 17
22 22 22 22 21 21 21 21 20 20 20 19 19 19 19 19 19 19 18 18 18 18 18 18 18 18 18 18 18 18 18 17 17 17 17 17 17 17 16 16 17 17 17
22 22 22 22 21 21 21 21 21 20 20 20 19 19 19 19 19 19 19 18 18 18 18 18 18 18 18 18 18 18 17 17 17 17 17 17 17 17 17 16 16 17 17
22 22 22 22 22 21 21 21 21 21 20 20 19 19 19 19 19 19 19 18 18 18 18 18 18 18 18 18 18 18 17 17 17 17 17 17 17 17 17 16 16 16 16
22 22 22 22 22 21 21 21 21 21 20 20 20 20 19 19 19 19 19 18 18 18 18 18 18 18 18 18 18 18 17 17 17 17 17 17 17 17 17 16 16 16 16
22 22 22 22 22 22 21 21 21 21 21 20 20 20 19 19 19 19 19 18 19 18 18 18 18 18 18 18 18 17 17 17 17 17 17 17 17 17 17 16 16 16 15
22 22 21 21 22 21 21 21 21 21 21 20 20 20 20 19 19 19 19 19 19 18 18 18 18 18 18 18 17 17 17 17 17 17 17 17 17 17 16 16 16 16 16
21 21 21 21 21 21 21 21 21 21 20 20 20 20 20 19 19 19 19 19 19 19 18 18 18 18 18 18 17 17 17 17 17 17 17 17 17 17 16 16 16 16 16
21 21 21 21 21 21 21 21 21 20 20 20 20 20 20 19 19 19 19 19 19 18 18 18 18 18 18 18 17 17 17 17 17 17 17 17 16 16 16 16 16 16 16
21 21 21 21 21 21 21 21 20 20 20 20 20 19 19 19 19 19 19 19 19 18 18 18 18 18 18 18 17 17 17 17 17 17 16 16 16 16 16 16 16 16 15
20 21 21 20 20 20 20 20 20 20 20 20 20 19 19 19 19 19 19 19 18 18 18 18 18 17 17 17 17 17 17 17 17 16 16 16 16 16 16 16 16 15 15
20 20 20 20 20 20 20 20 20 20 19 19 19 19 19 19 19 19 18 18 18 18 18 18 17 17 17 17 17 17 17 17 16 16 16 16 16 16 16 15 15 15 15
19 19 20 20 20 20 20 19 19 19 19 19 19 19 19 19 19 18 18 18 18 18 17 17 17 17 17 17 17 17 16 16 16 16 16 16 16 15 15 15 15 15 15
19 19 19 19 20 19 19 19 19 19 19 19 18 18 18 18 18 18 18 18 18 17 17 17 17 17 17 16 16 16 16 16 16 16 15 15 15 15 15 15 15 14 14
18 18 19 19 19 19 19 19 18 18 18 18 18 18 18 18 18 17 17 17 17 17 17 17 17 16 16 16 16 16 16 16 16 15 15 15 15 15 15 14 14 14 14
18 18 18 19 18 18 18 18 18 18 18 17 17 17 17 17 17 17 17 17 17 17 16 16 16 16 16 16 16 15 15 15 15 15 15 14 14 14 14 14 14 14 14
18 18 18 18 18 18 18 17 17 17 17 17 17 17 17 17 17 17 16 16 16 16 16 16 16 16 15 15 15 15 15 15 14 14 14 14 14 14 14 13 13 13 13
18 18 18 18 18 18 17 17 17 17 17 17 16 16 17 16 16 16 16 16 16 16 16 16 15 15 15 15 15 15 14 14 14 14 14 14 13 13 13 13 13 13 13
18 18 18 17 17 17 17 17 17 17 16 16 16 16 16 16 16 16 16 16 16 15 15 15 15 15 14 14 14 14 14 14 14 13 13 13 13 13 13 13 13 12 12
17 17 17 17 17 17 17 16 16 16 16 16 16 15 15 15 15 15 15 15 15 15 14 14 14 14 14 14 14 14 13 13 13 13 13 12 12 12 12 12 12 12 12
17 17 16 16 16 16 16 16 16 15 15 15 15 15 15 15 14 14 14 14 14 14 14 14 14 14 14 13 13 13 13 13 12 12 12 12 12 12 12 11 11 11 11
16 16 16 16 16 16 16 16 15 15 15 15 15 14 14 14 14 14 14 14 14 13 13 13 13 13 13 13 13 13 12 12 12 12 12 11 11 11 11 11 11 11 11
16 15 15 15 15 15 15 15 15 15 15 15 14 14 14 14 14 13 13 13 13 13 13 13 13 13 13 13 12 12 12 12 12 12 11 11 11 11 11 11 11 11 11
Wind_Speed
8 7 8 8 8 8 8 8 7 6 5 3 2 2 2 1 1 2 4 5 5 5 4 2 2 2 2 2 2 2 2 1 1 2 2 2 2 1 1 1 1 1 2
6 7 8 8 10 10 9 8 8 7 6 5 3 2 2 1 1 1 2 4 5 5 5 4 3 3 2 2 2 2 2 1 1 1 1 2 3 3 2 1 1 1 1
10 10 10 9 9 10 10 9 8 8 7 6 3 2 2 2 1 0 1 2 5 5 5 5 4 4 4 3 3 3 3 2 1 1 2 1 1 2 2 2 1 1 1
9 9 9 9 10 10 9 8 8 8 7 7 6 5 4 3 3 2 2 2 3 4 5 5 5 4 4 3 3 3 3 3 2 1 1 1 2 1 2 2 1 2 2
11 12 12 12 10 10 9 9 8 7 7 7 8 6 5 4 2 2 2 2 1 3 4 5 4 4 4 4 3 3 3 3 3 2 2 1 1 1 2 3 3 2 2
10 11 10 9 8 8 8 8 8 8 8 8 8 8 7 6 4 3 3 2 2 2 3 4 4 4 4 4 4 3 4 3 3 3 2 2 2 2 2 3 3 3 3
9 9 9 9 9 9 9 9 9 9 8 9 9 8 8 7 7 6 5 4 3 3 4 4 3 3 4 4 3 3 3 4 3 4 3 3 3 3 3 2 2 2 3
8 9 9 9 9 9 9 9 10 9 9 9 8 7 7 6 5 6 5 6 5 5 4 4 4 4 4 4 3 3 3 3 4 4 4 3 3 3 4 3 3 2 2
7 7 6 6 7 8 9 10 9 9 8 9 8 8 8 7 7 6 6 5 5 5 5 5 5 5 4 4 4 3 4 3 4 4 4 4 3 3 4 4 4 3 3
3 3 4 5 7 7 7 7 8 9 8 8 8 8 8 9 8 7 7 7 6 5 5 5 5 5 5 5 5 4 4 4 4 4 4 4 4 4 4 4 3 3 3
3 3 4 5 5 5 6 6 7 7 7 7 7 8 8 8 7 7 8 7 6 6 7 7 6 6 6 6 5 5 5 5 5 4 5 5 4 3 3 3 3 3 3
2 3 4 4 4 4 4 5 6 6 7 7 7 8 7 7 8 8 8 7 7 7 7 7 7 7 6 6 6 6 6 6 6 6 5 5 3 4 3 3 4 4 4
1 2 3 3 3 3 3 4 5 6 6 6 8 8 8 8 9 9 8 7 7 7 7 7 7 7 6 6 7 7 6 6 6 6 6 5 4 4 4 4 4 3 3
1 1 2 3 3 4 4 4 4 4 5 5 6 7 8 8 9 8 7 7 7 8 7 7 7 7 7 6 6 6 6 5 5 5 5 5 5 6 5 4 4 3 3
1 0 1 2 2 3 3 3 3 4 4 5 6 8 7 7 7 7 7 7 7 8 7 7 6 6 6 6 6 6 6 5 4 4 4 5 5 6 6 5 4 4 3
0 1 1 2 3 4 4 3 3 3 3 5 6 6 6 6 7 6 6 6 7 6 6 7 7 7 6 6 7 6 5 5 5 4 4 3 4 5 5 6 6 6 5
1 1 2 3 3 4 4 4 4 3 3 4 4 5 6 6 7 7 6 6 6 5 5 6 6 6 6 7 7 8 6 5 5 5 4 3 2 2 3 2 2 3 4
1 2 2 3 3 3 3 2 2 2 3 3 4 4 4 5 5 5 5 5 4 4 4 4 5 5 4 6 6 7 5 4 4 4 4 3 3 2 2 2 1 1 2
2 2 2 2 2 2 2 1 1 2 2 3 3 4 4 4 4 4 4 3 3 3 4 4 4 4 4 5 6 5 3 3 3 3 3 3 3 3 3 3 2 1 1
0 1 1 1 1 2 1 1 1 2 3 3 3 2 3 4 4 4 4 3 3 3 3 3 3 4 4 5 6 6 4 3 2 1 2 3 3 3 4 4 3 2 2
0 0 1 1 1 1 1 1 1 3 3 2 1 1 2 3 4 4 3 3 3 3 3 3 3 3 4 4 6 6 4 4 4 3 2 2 2 3 3 3 3 3 2
1 0 0 1 1 0 1 1 2 2 1 1 0 1 1 2 2 3 3 3 4 4 4 3 2 1 2 3 3 5 5 5 4 3 2 2 3 3 3 3 2 2 3
2 1 1 0 1 1 1 2 2 1 0 1 0 0 1 1 1 3 3 3 3 3 3 3 2 2 1 1 3 3 4 5 3 3 3 4 4 4 3 3 3 3 2
1 1 1 0 1 1 0 1 1 1 1 1 0 0 0 1 1 2 2 3 3 3 3 3 3 2 1 1 1 2 3 3 3 2 3 5 5 4 3 3 2 1 1
1 0 1 1 1 1 1 0 1 2 1 1 1 1 1 1 2 2 1 2 2 4 4 3 3 3 2 3 4 4 3 3 3 4 3 2 2 2 2 1 1 1 1
1 1 1 1 1 1 1 1 1 2 3 2 1 1 2 2 2 2 2 3 1 1 2 4 4 3 4 4 4 5 5 5 6 5 3 2 2 2 2 2 1 1 1
Wind_Direction
199 187 187 181 178 184 184 187 189 185 165 153 160 163 184 190 187 203 207 201 203 197 187 180 160 149 153 163 143 114 92 67 76 66 16 6 20 19 303 251 230 235 235
188 190 189 187 186 188 188 189 191 186 180 179 169 165 156 171 186 196 195 200 199 198 193 174 169 163 160 157 153 140 132 119 95 104 70 7 355 360 5 356 203 223 228
196 194 191 194 194 192 190 194 193 189 185 173 146 121 94 80 111 183 211 202 197 200 195 184 174 172 175 185 185 168 164 167 151 124 137 148 245 322 336 343 330 315 286
199 196 191 193 199 200 190 187 190 189 183 170 169 168 176 187 199 195 200 196 194 200 201 193 185 182 181 187 197 180 172 162 183 185 189 184 169 182 309 325 325 320 304
197 198 199 199 197 196 191 187 183 188 184 180 182 183 191 195 183 171 188 213 220 216 211 202 194 189 190 197 198 177 179 183 189 189 178 171 166 191 210 276 305 322 301
201 201 200 193 192 192 188 185 185 195 190 187 188 190 192 188 182 188 202 221 227 229 218 205 198 196 194 198 199 192 192 200 199 195 183 178 190 198 197 234 273 294 301
196 196 197 194 194 193 191 188 189 199 196 192 194 196 197 192 196 201 204 210 221 227 224 215 203 203 203 200 196 193 204 203 198 205 210 206 215 193 183 200 246 275 295
196 199 199 198 196 194 190 189 193 199 196 195 198 196 194 197 206 207 207 210 216 221 215 206 208 209 204 200 191 201 211 202 209 220 215 217 225 207 197 192 195 259 292
196 199 197 193 191 192 194 193 192 197 199 199 196 197 197 201 208 206 205 213 215 218 208 207 209 212 206 197 189 208 219 211 220 225 219 226 232 221 217 207 197 198 255
176 180 184 189 191 191 190 188 190 197 201 200 204 209 207 207 208 205 207 210 214 214 205 209 211 214 213 206 200 209 217 216 228 225 221 229 232 220 215 212 213 211 219
170 173 176 179 173 176 182 190 193 195 197 200 204 209 208 207 205 208 214 214 213 209 213 214 211 213 215 212 205 215 214 218 227 228 224 232 225 219 219 212 211 215 211
171 163 161 158 161 167 182 200 201 204 206 201 202 209 208 205 209 215 217 211 214 215 214 213 213 216 216 210 209 219 219 217 222 224 220 229 222 220 221 217 219 220 215
100 119 142 158 171 183 194 210 212 217 212 201 203 208 210 211 216 218 217 210 210 214 212 209 215 217 215 211 213 215 217 217 219 217 216 223 215 227 227 220 221 223 220
72 113 172 192 197 200 206 225 229 224 219 212 208 212 216 219 223 221 216 213 211 212 211 211 215 215 213 211 209 208 212 215 218 217 218 220 219 225 224 222 220 213 211
62 152 209 219 224 226 226 226 232 225 220 216 216 220 220 218 220 219 217 212 210 216 214 211 215 211 209 211 205 202 204 206 213 219 225 229 223 223 222 221 214 207 212
185 231 250 252 249 243 238 238 239 234 221 222 226 224 217 215 214 216 215 211 211 214 209 208 208 211 215 204 197 197 203 201 205 216 233 237 226 228 224 219 211 203 208
287 270 261 261 261 258 247 235 237 238 231 233 229 222 215 213 213 213 213 216 216 213 208 207 202 208 212 199 195 197 199 203 207 211 220 232 231 220 219 212 215 222 222
262 288 289 289 288 279 275 262 232 209 219 228 225 221 217 217 215 210 213 220 215 203 204 206 203 204 213 195 197 199 195 194 200 205 209 214 226 223 190 189 216 253 266
250 256 255 258 274 265 247 232 236 224 226 238 233 219 207 204 202 205 207 208 196 197 201 197 190 194 210 192 187 182 190 196 209 216 213 209 216 212 168 166 193 234 284
234 279 321 341 321 289 227 182 243 251 258 258 251 231 196 184 191 198 198 197 188 200 192 190 187 189 200 186 176 173 183 192 208 215 220 212 209 200 174 175 182 209 251
43 74 62 348 309 313 121 183 244 259 267 268 243 218 190 184 192 194 194 183 174 175 179 189 197 189 188 187 178 175 185 188 191 202 213 218 185 173 176 174 184 213 214
358 32 44 324 321 321 155 198 249 268 287 296 268 261 227 208 201 175 182 177 168 170 179 186 208 217 195 191 183 173 177 179 182 196 202 188 150 137 141 151 144 130 117
230 226 196 238 313 274 183 206 264 279 142 72 25 327 310 229 172 168 164 164 164 173 184 184 201 228 212 178 167 166 168 167 175 182 164 149 134 124 123 126 126 125 121
253 264 152 117 313 305 260 207 226 220 155 135 122 144 146 154 127 136 150 159 174 181 185 188 199 208 194 187 173 163 156 154 156 155 127 116 107 107 105 99 99 122 140
251 240 234 231 273 291 345 70 177 155 142 148 148 134 128 126 114 102 116 176 205 200 193 199 190 186 201 209 184 170 171 171 161 136 115 104 108 114 107 106 115 138 147
205 189 238 258 287 311 321 296 228 169 151 151 147 137 132 126 131 120 70 48 72 120 177 183 184 199 200 188 178 174 173 163 147 129 134 154 167 173 178 185 192 185 195
Height
1515 1518 1521 1523 1525 1527 1529 1531 1533 1535 1537 1538 1539 1540 1542 1543 1545 1546 1547 1549 1550 1551 1552 1553 1554 1555 1556 1556 1556 1557 1557 1557 1557 1557 1557 1557 1557 1557 1557 1558 1558 1559 1560
1514 1516 1518 1521 1523 1525 1527 1529 1532 1534 1536 1537 1539 1540 1542 1543 1544 1546 1547 1548 1549 1551 1552 1553 1554 1554 1555 1555 1556 1556 1556 1556 1557 1557 1557 1556 1558 1557 1557 1557 1558 1558 1558
1510 1512 1515 1518 1520 1522 1524 1527 1529 1532 1534 1536 1538 1540 1541 1542 1543 1545 1546 1547 1549 1550 1551 1552 1553 1553 1554 1554 1555 1555 1555 1555 1556 1556 1557 1557 1556 1556 1556 1556 1557 1557 1557
1507 1509 1511 1513 1516 1519 1522 1525 1527 1530 1532 1535 1536 1538 1539 1540 1542 1544 1545 1547 1548 1549 1550 1550 1551 1552 1552 1553 1554 1554 1554 1555 1555 1555 1555 1556 1556 1556 1555 1556 1555 1555 1555
1503 1505 1507 1510 1513 1517 1519 1522 1525 1527 1530 1532 1534 1536 1537 1539 1541 1542 1544 1545 1546 1547 1548 1549 1549 1550 1551 1551 1552 1553 1553 1553 1553 1554 1554 1554 1555 1554 1554 1553 1553 1554 1553
1499 1502 1505 1508 1511 1514 1517 1519 1522 1524 1527 1529 1531 1533 1535 1537 1538 1539 1541 1543 1544 1545 1546 1547 1548 1548 1549 1550 1550 1551 1551 1551 1552 1552 1552 1553 1553 1552 1552 1552 1551 1551 1551
1496 1499 1502 1505 1508 1511 1514 1516 1519 1522 1524 1526 1529 1530 1533 1534 1536 1537 1539 1541 1542 1543 1544 1545 1546 1546 1547 1548 1548 1549 1549 1549 1550 1550 1551 1551 1551 1551 1551 1550 1549 1549 1548
1493 1496 1499 1502 1505 1508 1511 1514 1516 1518 1521 1523 1525 1528 1530 1531 1533 1535 1536 1538 1539 1540 1542 1543 1543 1544 1545 1545 1546 1546 1546 1547 1548 1548 1548 1548 1548 1549 1548 1548 1548 1547 1546
1491 1493 1496 1499 1502 1506 1508 1511 1513 1515 1518 1520 1523 1525 1527 1528 1530 1532 1533 1535 1536 1537 1538 1540 1541 1541 1542 1542 1543 1543 1544 1544 1545 1545 1545 1546 1546 1546 1546 1546 1546 1546 1544
1490 1492 1495 1497 1500 1503 1506 1509 1511 1513 1515 1518 1520 1521 1523 1525 1526 1528 1529 1531 1532 1534 1535 1536 1537 1538 1539 1539 1539 1540 1540 1541 1542 1543 1543 1543 1543 1543 1543 1543 1543 1543 1542
1489 1491 1493 1495 1498 1501 1503 1505 1507 1510 1512 1513 1516 1518 1519 1521 1523 1524 1526 1527 1529 1530 1531 1533 1534 1534 1535 1536 1536 1536 1537 1538 1539 1539 1540 1540 1540 1540 1539 1539 1539 1539 1539
1488 1490 1492 1494 1495 1498 1500 1502 1504 1506 1508 1510 1512 1514 1515 1517 1519 1520 1522 1523 1525 1526 1528 1529 1529 1530 1531 1532 1532 1533 1534 1535 1535 1536 1536 1536 1537 1536 1536 1536 1536 1535 1535
1488 1489 1491 1492 1494 1496 1498 1500 1502 1503 1505 1506 1508 1509 1511 1513 1514 1516 1518 1519 1521 1522 1523 1524 1525 1526 1527 1528 1529 1530 1530 1531 1532 1532 1532 1533 1533 1532 1532 1532 1532 1531 1531
1488 1489 1490 1491 1493 1494 1495 1497 1498 1500 1501 1502 1504 1505 1506 1508 1510 1512 1513 1515 1516 1517 1519 1520 1521 1521 1523 1524 1525 1525 1526 1527 1527 1528 1528 1528 1528 1528 1528 1528 1528 1527 1527
1488 1489 1489 1490 1491 1492 1493 1494 1495 1497 1498 1499 1500 1500 1502 1504 1506 1507 1509 1510 1511 1512 1514 1515 1516 1517 1518 1519 1520 1521 1522 1522 1522 1523 1524 1524 1524 1524 1524 1524 1524 1523 1523
1488 1488 1489 1489 1490 1490 1491 1492 1493 1494 1494 1495 1496 1497 1498 1500 1501 1503 1504 1505 1506 1507 1508 1509 1510 1511 1513 1514 1515 1517 1517 1517 1517 1518 1519 1519 1519 1519 1520 1519 1519 1519 1519
1486 1486 1487 1487 1488 1488 1488 1489 1490 1490 1491 1491 1492 1493 1494 1495 1496 1498 1500 1501 1501 1502 1502 1504 1505 1506 1507 1509 1510 1511 1512 1512 1513 1513 1514 1514 1514 1515 1515 1515 1515 1515 1514
1484 1485 1485 1485 1486 1486 1486 1487 1487 1487 1487 1487 1488 1489 1490 1491 1492 1493 1495 1496 1497 1498 1498 1499 1500 1502 1503 1504 1506 1506 1507 1507 1508 1508 1509 1510 1510 1511 1511 1511 1511 1510 1510
1483 1483 1483 1483 1483 1484 1484 1483 1483 1484 1484 1484 1484 1485 1486 1486 1488 1489 1490 1491 1492 1493 1494 1495 1496 1497 1498 1500 1501 1502 1501 1502 1503 1504 1505 1506 1506 1506 1506 1507 1507 1506 1506
1481 1481 1481 1481 1481 1481 1481 1481 1481 1481 1481 1481 1481 1481 1482 1482 1484 1485 1486 1486 1487 1489 1490 1491 1492 1493 1494 1494 1496 1497 1497 1498 1498 1499 1500 1501 1502 1502 1502 1503 1503 1503 1503
1479 1479 1479 1479 1479 1479 1478 1478 1478 1478 1478 1478 1478 1478 1478 1479 1480 1481 1482 1483 1484 1486 1486 1487 1488 1489 1489 1491 1492 1493 1493 1493 1494 1495 1496 1497 1498 1499 1499 1500 1500 1500 1500
1477 1477 1477 1477 1477 1477 1476 1476 1476 1476 1476 1476 1475 1475 1475 1476 1477 1478 1479 1480 1480 1481 1483 1484 1485 1486 1486 1487 1488 1489 1490 1491 1491 1492 1493 1494 1495 1495 1496 1496 1496 1497 1497
1475 1475 1475 1474 1475 1474 1474 1474 1474 1474 1473 1473 1473 1473 1473 1473 1474 1474 1475 1476 1477 1478 1480 1481 1482 1483 1483 1484 1485 1486 1487 1488 1489 1490 1491 1492 1492 1492 1492 1493 1494 1494 1494
1474 1473 1473 1472 1472 1472 1473 1472 1472 1473 1472 1471 1471 1471 1471 1471 1471 1472 1472 1474 1475 1476 1477 1478 1479 1480 1481 1482 1483 1483 1485 1486 1487 1487 1488 1489 1490 1490 1490 1491 1492 1492 1493
1472 1472 1472 1471 1471 1471 1471 1470 1470 1470 1469 1469 1469 1469 1469 1469 1469 1470 1471 1472 1473 1474 1475 1475 1476 1477 1478 1479 1480 1481 1482 1483 1484 1485 1485 1486 1487 1487 1488 1489 1490 1491 1491
1470 1471 1471 1471 1470 1470 1470 1469 1468 1468 1468 1467 1467 1467 1467 1468 1468 1468 1469 1470 1471 1472 1472 1473 1474 1475 1476 1477 1478 1479 1480 1481 1481 1482 1482 1484 1484 1485 1485 1486 1487 1488 1489